Regional Weather Roundup
Issued by NWS

Current Version | Previous Version | Text Only | Print | Product List | Glossary On
Versions: 1 2 3 4 5 6 7 8 9 10 11 12 13 14 15 16 17 18 19 20 21 22 23 24 25 26 27 28 29 30 31 32 33 34 35 36 37 38 39 40 41 42 43 44 45 46 47 48 49 50
000
ASUS46 KSTO 040715
RWRCA

NORTHERN AND CENTRAL CA REGIONAL WEATHER ROUNDUP
NATIONAL WEATHER SERVICE SACRAMENTO CA
1200 AM PDT TUE OCT 04 2022

NOTE: FAIR INDICATES FEW OR NO CLOUDS BELOW 12,000 FEET WITH NO
SIGNIFICANT WEATHER AND/OR OBSTRUCTIONS TO VISIBILITY.

CAZ001-003-040800-
NORTHWEST AREA

CITY           SKY/WX    TMP DP  RH WIND       PRES   REMARKS
CRESCENT CITY  CLOUDY    58  55  90 CALM      30.10F
UKIAH          CLEAR     59  52  77 CALM      30.03F
$$

CAZ006-505>513-040800-
BAY AREA

CITY           SKY/WX    TMP DP  RH WIND       PRES   REMARKS
SANTA ROSA     CLEAR     53  51  93 CALM      30.02F
SAN RAFAEL     N/A       57  MM  MM MISG
NAPA           CLEAR     54  51  90 CALM      30.02S
CONCORD        CLEAR     61  54  77 S12       30.01F
OAKLAND CITY   N/A       61  MM  MM MISG
OAKLAND        MOCLDY    60  55  83 W8        30.04F
SAN FRAN CITY  N/A       58  MM  86 MISG
SAN FRAN ARPT  PTCLDY    60  55  83 W16G25    30.03F
LIVERMORE      CLEAR     59  55  87 W6        30.03S
HAYWARD        CLOUDY    61  57  87 W8        30.04S
REDWOOD CITY   N/A       57  MM  83 MISG
MOFFETT ARPT   CLEAR     59  54  82 N3        30.03F
SAN JOSE ARPT  PTCLDY    61  55  81 N6        30.04S
$$
CAZ034-037-514>518-040800-
CENTRAL COAST

CITY           SKY/WX    TMP DP  RH WIND       PRES   REMARKS
WATSONVILLE    CLEAR     56  53  90 N3        30.03S
SALINAS        CLEAR     60  53  77 N3        30.02S
MONTEREY       CLEAR     59  55  87 W7        30.03F
SAN LUIS OBISP CLEAR     57  53  86 CALM      29.99S
SANTA MARIA    CLEAR     56  54  93 CALM      29.99F
HALF MOON BAY  CLOUDY    59  59 100 N6        30.05F
$$
CAZ015-016-040800-
NORTHERN SACRAMENTO VALLEY

CITY           SKY/WX    TMP DP  RH WIND       PRES   REMARKS
REDDING        CLEAR     68  51  54 CALM      29.97R
RED BLUFF      CLEAR     68  53  58 CALM      29.97R
OROVILLE       CLEAR     70  56  61 SE5       29.98R
$$
CAZ016>018-040800-
SOUTHERN SACRAMENTO VALLEY

CITY           SKY/WX    TMP DP  RH WIND       PRES   REMARKS
AUBURN         CLEAR     66  50  55 CALM      30.02S
BEALE AFB      CLEAR     60  52  74 E5        29.95S
LINCOLN        FAIR      63  54  72 SE7       29.96S
MARYSVILLE     CLEAR     63  53  70 S5        29.97R
SAC INTL ARPT  CLEAR     65  51  60 SE6       29.95S
MATHER AIRPORT CLEAR     57  54  88 SE7       29.97S
DOWNTOWN SAC   N/A       64  MM  MM MISG
SAC EXEC ARPT  CLEAR     62  53  72 S5        29.97R
VACAVILLE      CLEAR     65  51  60 SW6       29.96F
TRAVIS AFB     CLEAR     60  52  75 SW21      29.95F
$$
CAZ019>021-040800-
SAN JOAQUIN VALLEY

CITY           SKY/WX    TMP DP  RH WIND       PRES   REMARKS
STOCKTON       CLEAR     63  55  75 NE5       29.98R
MODESTO        CLEAR     65  54  67 N6        29.97S
LEMOORE        CLEAR     67  50  54 NW10      29.98S
FRESNO         CLEAR     72  55  55 NW5       29.98S
HANFORD        CLEAR     65  56  72 NW3       29.98S
PORTERVILLE    CLEAR     67  54  63 CALM      30.00R
BAKERSFIELD    CLEAR     73  53  49 CALM      29.99R
$$
CAZ011-012-071-040800-
NORTHERN MOUNTAINS

CITY           SKY/WX    TMP DP  RH WIND       PRES   REMARKS
YREKA          CLEAR     59  32  36 E6        30.09R
MOUNT SHASTA   CLEAR     49  40  71 CALM      30.13R
ALTURAS        CLEAR     47  31  53 CALM      30.18R
$$
CAZ011-012-071-040800-
SIERRA NEVADA MTNS

CITY           SKY/WX    TMP DP  RH WIND       PRES   REMARKS
BLUE CANYON    CLEAR     62  30  29 CALM      30.22S
TRUCKEE        CLEAR     43  30  61 CALM      30.28S
TAHOE VLY ARPT CLEAR     41  30  65 S3        30.29S
MAMMOTH LAKES  FAIR      46  19  34 N5        30.35S
$$



USA.gov is the U.S. government's official web portal to all federal, state and local government web resources and services.